Location: Bagnolo San Vito
(45.0833°N, 10.8833°E)
Time: 08:45:31
(UTC+00:00)

Ariane Rocket - Pass Details

Date: 03 March 2021
Orbit: 759 x 771 km, 98.7° (Epoch: 18 April)

Event Time Altitude Azimuth Distance (km) Brightness Sun altitude
Exits shadow 18:42:04 29° 120° (ESE) 1,399 3.8 -17.6°
Maximum altitude 18:44:11 44° 68° (ENE) 1,066 3.3 -18.0°
Drops below altitude 10° 18:49:00 10° 358° (N) 2,323 5.6 -18.8°
Sets 18:51:24 0° 352° (N) 3,253 6.5 -19.2°
